DW4892 Weather Reports


Display with metric or nautical units.
time (UTC)temp
F
wind
direction
speed
MPH
gust
MPH
rain 1hr
in
rain 24hr
in
rain mn
in
humidity
%
barometer
mb
20180818100051 62 238 1.0 4.0 0.00 0.00 0.00 75 1022.8
20180818094526 62 229 2.0 7.0 0.00 0.00 0.00 76 1022.9
20180818093028 61 209 3.0 6.0 0.00 0.00 0.00 77 1023.0
20180818091538 61 243 3.0 6.0 0.00 0.00 0.00 79 1023.0
20180818090042 60 205 4.0 9.0 0.00 0.00 0.00 80 1023.2
20180818084547 60 188 3.0 8.0 0.00 0.00 0.00 81 1023.4
20180818083034 60 206 3.0 9.0 0.00 0.00 0.00 81 1023.7
20180818081558 60 186 6.0 11.0 0.00 0.00 0.00 82 1023.8
20180818080024 60 173 6.0 17.0 0.00 0.00 0.00 83 1024.1
20180818074524 60 189 5.0 10.0 0.00 0.00 0.00 82 1024.3
20180818073021 60 201 5.0 11.0 0.00 0.00 0.00 81 1024.2
20180818071537 60 183 5.0 14.0 0.00 0.00 0.00 80 1024.2
20180818070058 61 194 7.0 16.0 0.00 0.00 0.00 80 1024.3
20180818064542 61 231 6.0 14.0 0.00 0.00 0.00 79 1024.6
20180818063100 61 161 6.0 11.0 0.00 0.00 0.00 78 1024.8
20180818061537 62 153 5.0 12.0 0.00 0.00 0.00 76 1024.9
20180818060050 62 174 5.0 15.0 0.00 0.00 0.00 74 1025.1
20180818054526 63 164 7.0 16.0 0.00 0.00 0.00 73 1025.2
20180818053044 63 146 6.0 15.0 0.00 0.00 0.00 73 1025.3
20180818051558 62 177 6.0 14.0 0.00 0.00 0.00 74 1025.5
20180818050054 62 173 4.0 10.0 0.00 0.00 0.00 79 1025.7
20180818044528 62 149 2.0 11.0 0.00 0.00 0.00 81 1025.7
20180818043030 62 154 2.0 8.0 0.00 0.00 0.00 80 1025.7
20180818041541 62 90 6.0 13.0 0.00 0.00 0.00 78 1025.6
20180818040033 62 140 5.0 9.0 0.00 0.00 0.00 80 1025.5
20180818034534 62 121 3.0 8.0 0.00 0.00 0.00 79 1025.4
20180818033054 63 117 3.0 8.0 0.00 0.00 0.00 77 1025.2
20180818031526 63 78 4.0 10.0 0.00 0.00 0.00 75 1025.0
20180818030034 66 98 1.0 6.0 0.00 0.00 0.00 68 1024.8
20180818024537 67 103 1.0 6.0 0.00 0.00 0.00 65 1024.4
20180818023051 68 104 1.0 9.0 0.00 0.00 0.00 65 1024.3
20180818021543 68 127 2.0 10.0 0.00 0.00 0.00 65 1024.4